Location: Clanezzo
(45.7500°N, 9.6000°E)
Time: 04:14:43
(UTC+00:00)

Cosmos 1461 - Pass Details

Date: 12 May 2021
Orbit: 510 x 653 km, 65.0° (Epoch: 18 June)

Event Time Altitude Azimuth Distance (km) Brightness Sun altitude
Exits shadow 23:11:44 30° 275° (W) 1,172 4.5 -25.9°
Maximum altitude 23:13:12 37° 314° (NW) 1,002 4.4 -25.9°
Drops below altitude 10° 23:17:30 10° 23° (NNE) 2,027 6.6 -25.9°
Sets 23:19:54 0° 31° (NNE) 2,919 7.4 -25.9°
